Regional Weather Roundup
Issued by NWS Wilmington, NC

Home | Current Version | Previous Version | Text Only | Print | Product List | Glossary On
Versions: 1 2 3 4 5 6 7 8 9 10 11 12 13 14 15 16 17 18 19 20 21 22 23 24 25 26 27 28 29 30 31 32 33 34 35 36 37 38 39 40 41 42 43 44 45 46 47 48 49 50
000
ASUS42 KILM 282213
RWRILM
RWRILM
REGIONAL HOURLY WEATHER ROUNDUP
NATIONAL WEATHER SERVICE WILMINGTON NC
600 PM EDT FRI APR 28 2017

NOTE: "FAIR" INDICATES FEW OR NO CLOUDS BELOW 12,000 FEET WITH NO
SIGNIFICANT WEATHER AND/OR OBSTRUCTIONS TO VISIBILITY.

...............WFO WILMINGTON COUNTY WARNING AREA...............

......COASTAL NC AND SC COUNTIES......

CITY           SKY/WX    TMP DP  RH WIND       PRES   REMARKS
WILMINGTON     PTSUNNY   82  74  76 SW13      30.10S
N MYRTLE BEACH MOSUNNY   77  74  90 S14G22    30.10S
MYRTLE BEACH   NOT AVBL

......INLAND NC AND SC COUNTIES.......

CITY           SKY/WX    TMP DP  RH WIND       PRES   REMARKS
LUMBERTON      SUNNY     86  70  58 S9        30.05S HX  90
ELIZABETHTOWN  MOSUNNY   85  74  68 SE10G18   30.07R HX  93
WHITEVILLE     SUNNY     84  74  71 S7G16     30.08S HX  91
FLORENCE       MOSUNNY   89  70  53 S13       30.05S HX  94
DARLINGTON     MOSUNNY   88  70  55 S10       30.06S HX  93
KINGSTREE      FAIR      84  72  65 SE12      30.07R
HARTSVILLE     FAIR      86  68  54 S8        30.05S
BENNETTSVILLE  FAIR      88  70  55 S8        30.05R HX  92
CONWAY         FAIR      86  73  66 S7        30.09R HX  93
GEORGETOWN     PTSUNNY   81  73  78 S12       30.11R
MARION         FAIR      86  70  58 S12       30.07R HX  90

....................REST OF NORTH CAROLINA......................

.........EASTERN NC.........

CITY           SKY/WX    TMP DP  RH WIND       PRES   REMARKS
CAPE HATTERAS  PTSUNNY   78  72  81 SW9G18    30.12R HAZE
JACKSONVILLE   SUNNY     85  73  67 S12G20    30.08S HX  91
MOREHEAD CITY  MOSUNNY   78  75  90 SW15      30.12R
KENANSVILLE    SUNNY     86  72  62 S5        30.07S HX  92
NEW BERN       MOSUNNY   84  74  71 S8G20     30.09R HX  91
ELIZABETH CITY SUNNY     85  74  69 S9        30.05R HX  92

.........CENTRAL NC.........

CITY           SKY/WX    TMP DP  RH WIND       PRES   REMARKS
RALEIGH DURHAM MOSUNNY   87  66  49 S10       30.04S
ROCKY MOUNT    MOSUNNY   87  67  51 S9        30.04S HX  90
ROANOKE RAPIDS NOT AVBL
FAYETTEVILLE   MOSUNNY   90  66  45 S15       30.04S HX  92
HOFFMAN        MOSUNNY   88  65  46 SW13      30.05R

.........WESTERN NC.........

CITY           SKY/WX    TMP DP  RH WIND       PRES   REMARKS
CHARLOTTE      MOSUNNY   84  65  52 SW10      30.06R
GREENSBORO     MOSUNNY   82  66  58 SW14      30.05S
HICKORY        NOT AVBL
BOONE          NOT AVBL
ASHEVILLE      NOT AVBL

.....................REST OF SOUTH CAROLINA.....................

.........EASTERN SC.........

CITY           SKY/WX    TMP DP  RH WIND       PRES   REMARKS
CHARLESTON     MOSUNNY   81  72  74 S15       30.09S
BEAUFORT MCAS  MOSUNNY   82  76  81 S9        30.07S
HILTON HEAD    PTSUNNY   79  75  89 S8G15     30.09S

.........CENTRAL SC.........

CITY           SKY/WX    TMP DP  RH WIND       PRES   REMARKS
COLUMBIA       MOSUNNY   91  67  44 S12       30.03R HX  94
ORANGEBURG     MOSUNNY   88  69  53 S12       30.05S HX  92
SUMTER SHAW    SUNNY     89  68  50 S12       30.03S HX  93

.........WESTERN SC.........

CITY           SKY/WX    TMP DP  RH WIND       PRES   REMARKS
GREENVILLE     NOT AVBL
ROCK HILL      MOSUNNY   84  66  54 S10       30.06S
ANDERSON       SUNNY     83  65  54 S12       30.05R
CLEMSON        NOT AVBL
GREENWOOD      SUNNY     85  65  51 S9        30.06R


...................COASTAL AND OFFSHORE REPORTS..................

................LOCAL PIERS AND NC RESERVE................


STATION/POSITION TIME  SKY/WX   TEMP    WIND        PRES    VSBY
                                AIR SEA DIR/SP/G
                 (UTC)          (F)     (DEG/KT/KT) (MB)    (MI)
JOHNY MRCER PIER 2136            74 73  180/ 17/ 18 1018.5S
NC RESRV MASNBRO 2045            80     240/  8     1020.0
OCEAN CREST PIER NOT AVBL
SPRINGMAID  PIER 2148                               1018.7R


................COASTAL AND OFFSHORE BUOYS................


STATION/POSITION TIME  SKY/WX   TEMP    WIND        PRES    VSBY
                                AIR SEA DIR/SP/G
                 (UTC)          (F)     (DEG/KT/KT) (MB)    (MI)
DIMNDSHOAL 41025 2150            78 76  210/ 16/ 19 1020.0R
WVE H/P(F/S)=  4/ 8 SWL H/P/D(F/S/D)=  3/120/ 8

CAPE LOOKOUT     2200            76     210/ 11/ 15 1019.8R
ONSLOW BAY 41036 NOT AVBL
ONSLOW BAY 41064 2108            74     210/ 10/ 14 1020.2R
ONSLOW BAY 41159 2143               73                N/A
WVE H/P(F/S)=  4/ 6

MASNBO INL 41110 2159               71                N/A
WVE H/P(F/S)=  3/ 6

WILM HARBR 41108 2147               73                N/A
WVE H/P(F/S)=  4/ 5

27SE WRITB 41037 2108            75 73  190/ 10/ 16 1019.1R
FRYING PAN 41013 2200            75 74  190/  8/  8 1020.1
SUNST NRSH 41024 2108            74 73  200/  8/ 10 1019.3S
CAPRS NRSH 41029 2108            76 76  190/  6/  8 1019.3S
EDISTO     41004 2150            76 75  170/ 12/ 14 1019.5S
WVE H/P(F/S)=  4/ 8 SWL H/P/D(F/S/D)=  3/120/ 8



..........OFFSHORE BUOYS BEYOND 100 NM OFFSHORE...........
.....IN A TRIANGLE---HAT TO BERMUDA TO BAHAMAS TO HAT.....


STATION/POSITION TIME  SKY/WX   TEMP    WIND        PRES    VSBY
                                AIR SEA DIR/SP/G
                 (UTC)          (F)     (DEG/KT/KT) (MB)    (MI)
150E HAT   41001 2200            74 72  190/ 12/ 14 1022.6
W BERMUDA  41048 2200            73 72  170/  6/  8 1025.3
ATLANTIC S 41049 2150            74 74   70/ 12/ 14 1024.9F
WVE H/P(F/S)=  4/ 8 SWL H/P/D(F/S/D)=  3/ 40/ 8

E BAHAMAS  41046 2200            77 78   80/ 14/ 17 1020.8
NE BAHAMAS 41047 2200            76 77  110/ 12/ 14 1022.5
120E CANVRL41010 2200            78 79  150/ 10/ 14 1020.1

END



USA.gov is the U.S. government's official web portal to all federal, state and local government web resources and services.